User: anonymous   Login
Location: Caltech
(34.1382°N, 118.1253°W)
Time: 15:19:09
(UTC-07:00)
Language:

Cosmos 2219 - Orbit

View from above orbital plane
View from above orbital plane
View from above satellite
View from above satellite

Ground track
Ground track

The orbit data is extracted from the following two-line orbital elements,

1 22219U 92076A   16274.85567269 -.00000221 +00000-0 -92148-4 0  9993
2 22219 071.0610 019.4161 0016060 061.5791 298.6947 14.13590165231249
Epoch (UTC): 30 September 2016 20:32:10
Eccentricity: 0.0016060
inclination: 71.0610°
perigee height: 835 km
apogee height: 859 km
right ascension of ascending node: 19.4161°
argument of perigee: 61.5791°
revolutions per day: 14.13590165
mean anomaly at epoch: 298.6947°
orbit number at epoch: 23124

The dashed part of the orbit path shows where the satellite is in the earth's shadow,  

DLR